Other Surface Observations
Issued by NWS Charleston, SC

Home | Current Version | Previous Version | Text Only | Print | Product List | Glossary On
Versions: 1 2 3 4 5 6 7 8 9 10 11 12 13 14 15 16 17 18 19 20 21 22 23 24 25 26 27 28 29 30 31 32 33 34 35 36 37 38 39 40 41 42 43 44 45 46 47 48 49 50
000
SXUS52 KCHS 270627
OSOCHS

MARINE OBSERVATIONS
NATIONAL WEATHER SERVICE CHARLESTON SC
200 AM EDT MON APR 27 2015

...DOWNTOWN CHARLESTON AND HARBOR...

CITY           SKY/WX    TMP DP  RH WIND       PRES   REMARKS
WATERFRONT PRK   N/A     59 N/A N/A N16         N/A
FORT JOHNSON   NOT AVBL

...LAKE MOULTRIE...

CITY           SKY/WX    TMP DP  RH WIND       PRES   REMARKS
PINOPOLIS      NOT AVBL

...LAKE AND SUPPLEMENTAL COASTAL OBSERVATIONS...

STATION/POSITION TIME  TEMP    WIND        PRES    WAVE   SWELL
                       AIR SEA DIR/SP/G            HT/PER HT/PER/DIR
                 (UTC) (F)     (DEG/KT/KT) (MB)    (FT/S) (FT/S/D)
FORT PULASKI     0500   68 70   40/ 15/ 23 1006.2R
SAPELO ISLAND    0600   74     240/  9     1005.0S
UPR LAKE MARION  NOT AVBL
WINYAH BAY       0500   54     360/  7     1006.0S
LAKE MURRAY      0600   54      30/  2/  4 1008.1F
ACE BASIN NERRS  NOT AVBL


...C-MAN AND BUOY OBSERVATIONS...

STATION/POSITION TIME  TEMP    WIND        PRES    WAVE   SWELL
                       AIR SEA DIR/SP/G            HT/PER HT/PER/DIR
                 (UTC) (F)     (DEG/KT/KT) (MB)    (FT/S) (FT/S/D)
BUOY 41004       0550   65 71   30/ 17/ 21 1005.1F   5/ 6
BUOY 41008       0550   74 71  240/ 12/ 14 1004.6F   1/ 5
FOLLY BEACH CMAN 0600   59      20/ 11/ 14 1006.7F
CAPERS NS BUOY   0508   60      40/ 17/ 23 1007.5R
FRIPP NS BUOY    0500   67      60/ 17/ 21 1005.8R
5E ST. MARYS GA  0521      70                N/A     1/ 5


STATION/POSITION TIME  TEMP    WIND        PRES    WAVE   SWELL
                       AIR SEA DIR/SP/G            HT/PER HT/PER/DIR
                 (UTC) (F)     (DEG/KT/KT) (MB)    (FT/S) (FT/S/D)
FRYING PAN BUOY  0550   61 71   30/ 14/ 17 1006.2F   4/ 6   2/180/ 8
BUOY 41025       0550   59 76   10/ 19/ 23 1005.1    6/10   3/ 50/10
CAPE LOOKOUT NC  0600   54     360/  9/ 12 1006.1F
BUOY 41002       0550   67 70   20/  8/ 10 1004.5R   7/ 8   7/240/ 8
BUOY 41010       0520   80 78  250/ 16/ 17 1006.1F
ST AUGUSTINE FL  0600   75 67  270/  3/  3 1005.7F

$$



USA.gov is the U.S. government's official web portal to all federal, state and local government web resources and services.